Location: Caltech
(34.1382°N, 118.1253°W)
Time: 20:54:06
(UTC-08:00)

ERBS - Visible Passes

Search period start: 21 December 2014 00:00
Search period end: 31 December 2014 00:00
Orbit: 459 x 480 km, 57.0° (Epoch: 20 December)

Date Brightness Start Highest point End Pass type
(mag) Time Alt. Az. Time Alt. Az. Time Alt. Az.
25 Dec 4.3 06:08:45 10° NNW 06:11:50 26° NE 06:14:54 10° ESE visible
26 Dec 4.6 05:37:54 11° N 05:40:35 21° NE 05:43:23 10° E visible
27 Dec 4.8 05:08:05 15° NNE 05:09:17 17° NE 05:11:43 10° E visible
28 Dec 5.2 04:38:18 14° NE 04:38:18 14° NE 04:39:53 10° ENE visible
28 Dec 2.7 06:12:19 12° NW 06:15:36 53° SW 06:19:05 10° SSE visible
29 Dec 2.4 05:42:35 28° NW 05:44:20 73° SW 05:47:54 10° SSE visible
30 Dec 2.3 05:12:53 79° N 05:13:00 82° NE 05:16:35 10° SE visible
